Alexandria, MN

11:36 AM CDT on April 19, 2018 (GMT -0500)
Chandler

Weather History for KAXN - May, 2013

Change the Weather History Date:

Tuesday, May 14, 2013

  Actual Average Record
Temperature  
Mean Temperature 72 °F -  
Max Temperature 93 °F 68 °F 93 °F (2001)
Min Temperature 54 °F 45 °F 30 °F (2004)
Cooling Degree Days 8    
Growing Degree Days 22 (Base 50)    
Moisture  
Dew Point 40 °F    
Average Humidity 34    
Maximum Humidity 59    
Minimum Humidity 12    
Precipitation  
Precipitation 0.00 in - - ()
Sea Level Pressure  
Sea Level Pressure 29.62 in    
Wind  
Wind Speed 9 mph (WNW)    
Max Wind Speed 30 mph    
Max Gust Speed 39 mph    
Visibility 10 miles    
Events      
Averages and records for this station are not official NWS values.
T = Trace of Precipitation, MM = Missing Value Source: NWS Daily Summary

Daily Weather History Graph

Daily Weather History Graph

Search for Another Location

Airport or City:

Astronomy

May. 14, 2013 Rise Set
Actual Time 5:50 AM CDT 8:45 PM CDT
Civil Twilight 5:15 AM CDT 9:20 PM CDT
Nautical Twilight 4:31 AM CDT 10:05 PM CDT
Astronomical Twilight 3:38 AM CDT 10:58 PM CDT
Moon 9:31 AM CDT (5/14) No Moon Set
Length of Visible Light 16h 05m
Length of Day
14h 55m
Waxing Crescent, 19% of the Moon is Illuminated
May 14
Waxing Crescent
May 17
First Quarter
May 24
Full
May 31
Last Quarter
Jun 8
New

Hourly Weather History & Observations

Time (CDT) Temp. Dew Point Humidity Pressure Visibility Wind Dir Wind Speed Gust Speed Precip Events Conditions
12:53 AM 66.0 °F 36.0 °F 33% 29.68 in 10.0 mi Calm Calm - N/A   Clear
1:53 AM 60.1 °F 39.0 °F 46% 29.68 in 10.0 mi SW 5.8 mph - N/A   Clear
2:53 AM 57.0 °F 39.9 °F 53% 29.67 in 10.0 mi Calm Calm - N/A   Clear
3:53 AM 57.0 °F 39.9 °F 53% 29.66 in 10.0 mi South 5.8 mph - N/A   Clear
4:53 AM 54.0 °F 39.9 °F 59% 29.64 in 10.0 mi SE 4.6 mph - N/A   Clear
5:53 AM 55.9 °F 39.0 °F 53% 29.63 in 10.0 mi South 5.8 mph - N/A   Clear
6:53 AM 64.9 °F 37.9 °F 37% 29.61 in 10.0 mi South 10.4 mph - N/A   Clear
7:53 AM 70.0 °F 39.0 °F 32% 29.59 in 10.0 mi South 11.5 mph - N/A   Partly Cloudy
8:53 AM 68.0 °F 42.1 °F 39% 29.65 in 10.0 mi Variable 3.5 mph - N/A   Overcast
9:53 AM 73.0 °F 42.1 °F 33% 29.57 in 10.0 mi East 10.4 mph - N/A   Clear
10:53 AM 80.1 °F 45.0 °F 29% 29.52 in 10.0 mi East 10.4 mph - N/A   Clear
11:53 AM 87.1 °F 45.0 °F 23% 29.53 in 10.0 mi Variable 3.5 mph - N/A   Clear
12:53 PM 87.1 °F 46.0 °F 24% 29.54 in 10.0 mi NNW 10.4 mph - N/A   Clear
1:53 PM 90.0 °F 44.1 °F 20% 29.53 in 10.0 mi West 9.2 mph - N/A   Clear
2:53 PM 91.9 °F 37.9 °F 15% 29.53 in 10.0 mi WNW 20.7 mph - N/A   Clear
3:53 PM 90.0 °F 37.9 °F 16% 29.54 in 10.0 mi WNW 21.9 mph 35.7 mph N/A   Clear
4:53 PM 84.9 °F 27.0 °F 12% 29.57 in 10.0 mi WNW 20.7 mph 34.5 mph N/A   Clear
5:53 PM 82.0 °F 30.9 °F 16% 29.59 in 10.0 mi NW 25.3 mph 39.1 mph N/A   Clear
6:53 PM 79.0 °F 34.0 °F 20% 29.60 in 10.0 mi NW 29.9 mph 36.8 mph N/A   Clear
7:53 PM 73.9 °F 41.0 °F 30% 29.62 in 10.0 mi NW 27.6 mph 35.7 mph N/A   Clear
8:53 PM 69.1 °F 43.0 °F 39% 29.67 in 10.0 mi WNW 21.9 mph 34.5 mph N/A   Clear
9:53 PM 64.9 °F 44.1 °F 47% 29.72 in 10.0 mi WNW 17.3 mph 27.6 mph N/A   Clear
10:53 PM 63.0 °F 44.1 °F 50% 29.74 in 10.0 mi NW 13.8 mph 26.5 mph N/A   Clear
11:53 PM 61.0 °F 39.9 °F 46% 29.77 in 10.0 mi NNW 20.7 mph 27.6 mph N/A   Clear